Temp
9 9 9 9 9 9 9 9 9 9 10 11 13 14 14 14 14 14 14 14 14 14 14 15 15 16 16 18 19 17 16 16 16 15 15 16 17 16 17 16 15 16 17 17 17 17 17
9 9 9 9 9 9 9 9 9 10 10 12 13 14 14 14 14 14 14 14 14 14 14 14 15 15 16 18 17 17 16 16 15 15 15 16 16 15 16 16 15 16 15 16 17 17 17
9 9 9 9 9 9 9 9 10 10 10 11 13 14 14 15 15 15 15 15 14 14 14 14 14 15 16 19 16 16 16 15 15 15 16 14 14 16 15 16 15 15 15 18 18 17 17
9 9 9 9 9 9 9 9 10 9 10 12 13 14 15 15 15 15 15 15 15 14 14 14 14 14 17 16 16 16 15 15 15 14 14 13 13 15 15 15 15 15 15 19 21 17 17
9 9 10 10 10 10 10 10 10 10 10 12 14 15 15 15 16 16 16 15 14 14 14 14 13 14 18 16 16 16 15 16 14 13 13 13 14 15 15 16 18 17 18 18 18 17 17
10 10 10 10 10 10 9 9 9 9 9 11 13 14 15 15 16 16 16 15 14 13 13 13 13 15 16 18 16 15 15 14 15 15 15 15 15 17 16 19 19 18 18 18 18 19 16
9 10 9 10 10 9 9 9 9 9 10 11 12 13 15 15 16 16 17 15 16 16 13 17 17 17 16 16 15 15 14 15 15 16 18 15 18 20 19 17 17 17 16 17 19 18 16
9 8 8 8 8 8 7 8 8 8 9 12 13 14 15 15 15 15 16 14 12 11 14 13 13 14 14 15 17 16 14 16 16 18 16 17 19 18 16 16 15 17 17 19 19 17 15
8 8 7 7 7 7 7 7 7 7 7 10 12 12 14 15 15 14 12 12 11 10 13 15 14 15 16 15 17 17 16 16 16 16 17 18 19 15 15 17 17 19 18 18 16 16 15
7 6 6 6 6 6 6 6 6 6 6 8 11 12 12 15 14 12 12 11 11 11 17 18 16 16 15 15 16 15 15 16 16 17 16 17 16 16 17 17 17 19 17 16 16 16 18
6 5 5 5 5 5 5 5 5 5 5 8 11 11 12 12 12 13 12 11 11 11 17 17 16 15 15 16 15 15 13 15 17 17 16 19 17 16 17 18 16 19 16 15 15 16 15
5 5 5 5 5 5 5 5 5 5 5 5 10 11 11 10 11 12 12 12 11 17 17 19 16 16 16 15 16 15 15 15 14 15 15 17 14 15 17 16 15 16 17 15 15 17 18
5 5 4 4 5 5 5 5 5 5 5 5 11 11 10 10 12 11 11 13 17 17 19 19 18 16 17 17 16 15 16 16 17 16 18 17 16 15 14 17 15 17 19 18 19 18 19
5 4 4 4 5 5 4 4 4 4 4 6 11 11 9 9 9 10 11 16 16 18 19 18 17 16 18 17 17 16 16 17 15 16 17 18 18 17 16 17 17 16 17 18 16 18 18
5 5 5 5 4 4 4 4 4 4 4 5 9 10 9 8 9 10 14 14 16 18 18 17 16 17 18 16 16 16 17 18 18 16 19 17 18 15 15 15 16 16 17 15 16 14 14
4 4 4 4 4 4 4 4 4 4 5 6 5 6 8 8 9 10 14 14 15 14 15 17 18 19 19 18 16 16 18 17 16 14 15 17 17 15 14 14 14 15 15 16 15 15 17
4 4 4 4 4 4 4 4 4 4 5 7 6 11 9 9 9 13 13 13 13 14 14 15 17 17 18 18 17 17 18 17 15 13 14 15 16 17 14 16 18 15 16 15 15 16 16
4 4 4 4 4 4 4 4 4 4 4 6 6 11 9 10 11 9 12 10 10 13 13 14 14 14 16 16 16 16 17 17 13 14 15 15 15 16 18 14 13 15 16 17 17 15 15
4 4 4 4 4 4 3 3 4 4 4 4 8 8 9 8 11 11 10 10 11 12 12 12 13 12 13 14 15 15 14 12 12 13 14 13 14 15 16 15 13 14 15 15 14 15 15
4 4 4 4 4 4 3 3 3 5 5 5 8 9 9 9 7 9 8 9 10 11 10 10 9 10 10 12 13 14 14 12 11 12 12 13 14 15 16 17 15 15 15 14 15 15 16
4 4 4 4 4 3 3 3 3 5 6 5 7 6 6 7 8 7 8 9 9 9 9 9 8 8 8 9 11 12 10 10 12 11 11 11 13 12 14 14 13 14 14 15 14 14 15
3 3 3 3 3 3 3 3 3 4 5 4 5 4 5 6 6 6 7 7 7 6 7 8 7 7 7 8 9 7 8 9 10 10 11 10 12 11 11 13 13 13 14 14 14 14 15
3 3 3 3 3 3 3 3 3 3 4 3 2 3 4 5 5 6 5 5 5 6 7 7 6 6 7 8 6 7 8 8 8 9 9 9 11 11 12 13 12 12 14 13 14 15 15
3 3 3 3 3 3 3 2 3 3 2 3 2 2 4 5 5 5 4 4 5 4 4 5 6 6 6 7 7 8 8 8 8 9 9 9 9 10 10 11 10 14 13 13 13 14 15
3 3 3 3 3 3 3 3 3 2 2 2 2 2 3 3 4 4 4 4 4 5 4 5 6 6 5 6 6 8 9 8 9 8 8 9 9 10 10 11 13 14 15 13 12 15 14
2 2 2 2 2 2 2 2 2 2 2 2 2 2 1 2 4 5 4 4 4 4 4 4 6 5 5 5 6 6 8 9 10 9 7 7 8 9 10 9 11 14 13 11 13 13 13
2 2 2 2 2 2 2 2 2 2 2 2 2 2 1 2 4 3 3 4 4 4 3 4 4 4 5 5 5 6 7 8 8 9 8 7 7 7 9 9 12 14 13 12 13 13 12
2 2 2 2 2 2 2 2 2 2 2 2 2 2 1 2 3 3 4 4 4 4 4 4 4 4 4 4 5 6 6 5 4 6 7 8 8 8 8 8 9 10 11 11 9 10 11
2 2 2 2 2 2 2 2 2 2 2 2 1 2 2 1 2 1 2 2 3 4 4 2 4 4 5 4 5 4 5 5 4 4 7 6 8 5 5 10 10 10 9 8 9 9 10
Height
870 868 866 865 863 861 860 857 855 853 850 847 845 842 839 836 834 831 829 827 824 822 821 820 820 819 818 816 813 813 813 814 813 811 811 810 809 809 807 808 810 806 799 798 793 791 790
871 869 868 866 864 862 861 858 856 853 851 848 845 842 839 836 833 830 828 825 823 822 820 819 819 818 818 817 811 812 813 813 813 812 811 811 811 811 811 810 809 805 803 795 789 787 784
872 871 869 867 865 863 861 859 856 854 852 849 845 842 839 835 832 829 826 824 822 821 820 819 818 818 818 812 810 811 812 812 812 812 811 813 812 810 811 808 809 806 802 786 781 783 781
873 871 870 868 866 865 862 860 857 855 852 849 845 842 838 835 831 827 824 822 820 819 819 819 819 818 813 810 810 811 811 811 811 811 812 813 813 811 810 808 806 804 803 787 771 783 779
874 873 871 870 868 866 864 861 858 855 852 848 845 841 838 833 829 826 823 819 817 817 819 818 819 819 811 810 810 810 810 810 811 811 811 813 812 810 810 803 796 801 794 789 781 781 781
876 875 873 870 868 866 864 861 858 855 852 848 844 840 836 832 827 825 821 818 817 818 818 819 818 821 812 808 808 808 809 809 810 810 811 811 809 803 804 795 796 795 794 785 784 773 779
877 875 873 871 868 866 863 860 857 854 850 847 843 838 835 830 826 824 821 818 821 819 818 811 812 811 808 808 808 809 808 809 809 808 804 809 803 791 793 799 799 798 796 788 774 774 779
877 875 873 870 868 865 862 859 856 853 849 846 842 838 834 830 825 824 821 823 827 830 819 811 811 811 809 808 807 807 809 808 806 804 807 804 793 792 800 800 802 796 793 778 770 776 781
877 875 873 871 868 865 862 859 855 852 848 845 842 838 834 830 826 826 825 828 827 826 823 809 808 807 806 808 803 804 807 806 805 805 803 799 790 799 800 793 793 780 785 778 784 775 776
878 875 872 870 868 865 862 858 854 851 846 842 839 837 833 829 829 827 828 828 826 827 817 803 804 804 806 806 805 805 806 805 805 802 802 797 796 797 794 791 790 782 782 786 782 777 770
878 876 873 871 869 866 863 859 854 849 845 841 837 834 831 829 829 829 829 827 827 828 828 803 803 803 803 805 806 805 807 806 800 798 803 786 793 794 791 784 790 779 783 786 784 775 780
879 877 874 871 870 867 864 859 854 849 844 839 835 832 829 828 828 827 826 826 827 824 824 798 800 801 801 801 800 803 803 805 805 803 802 792 798 796 786 788 790 784 781 784 783 773 768
880 878 875 873 871 868 863 858 853 848 843 837 832 830 828 826 826 826 826 826 824 824 797 797 797 800 799 796 798 799 799 799 795 800 788 788 788 790 791 785 788 782 772 775 771 771 763
882 879 877 874 872 868 864 859 853 846 840 833 828 826 825 825 824 826 826 821 825 801 795 792 797 800 796 792 792 797 797 791 795 795 789 787 784 783 785 783 782 785 781 781 789 777 767
882 881 879 875 872 868 864 858 853 846 839 831 824 822 823 825 823 824 823 826 810 798 791 793 798 795 789 794 795 794 791 783 780 785 782 786 779 783 786 785 787 786 783 789 784 794 791
883 881 879 876 873 869 864 858 853 846 836 829 828 826 825 823 823 825 819 814 807 805 801 796 793 786 787 788 794 793 784 779 782 788 789 783 783 782 787 788 790 785 786 786 788 786 775
884 882 880 877 873 870 865 859 853 845 836 828 827 824 828 824 824 823 821 818 813 806 805 802 794 791 787 788 789 786 777 780 784 790 791 787 786 780 786 781 772 786 782 787 785 782 775
884 883 881 878 874 870 866 860 854 847 837 830 831 825 829 826 824 829 819 827 822 810 807 804 802 799 792 791 786 788 781 778 788 786 786 786 785 783 770 783 784 781 775 774 773 780 781
885 884 881 879 876 871 867 862 856 849 841 840 837 835 830 827 822 825 826 824 821 816 812 808 806 807 802 797 792 787 788 794 792 790 786 789 785 782 771 780 784 780 778 779 781 779 772
885 885 882 879 875 873 869 865 858 851 845 842 839 836 835 833 838 836 835 827 821 819 819 819 819 812 811 802 797 789 789 794 797 794 792 790 783 774 770 765 775 775 773 777 774 772 762
885 884 883 879 877 874 871 868 861 853 848 845 845 849 853 843 837 845 839 831 825 825 823 824 825 828 827 814 804 796 806 802 795 798 797 795 784 786 778 778 779 775 773 770 771 767 763
886 884 881 879 877 877 872 869 864 859 853 850 855 859 854 851 849 845 839 840 839 837 834 826 832 833 830 826 820 820 817 810 805 800 796 799 785 792 786 780 777 774 768 764 759 754 749
885 884 882 879 878 876 874 870 867 862 861 858 860 862 861 856 850 846 847 848 844 844 834 835 838 835 827 824 829 824 820 816 810 808 803 802 792 788 774 775 778 767 751 749 741 740 741
884 882 881 879 878 877 875 872 869 867 864 864 864 863 861 850 851 847 850 850 845 846 846 839 836 834 830 827 819 811 806 802 800 795 799 793 796 796 783 781 780 740 742 744 742 734 733
883 882 879 878 876 874 874 872 868 868 866 864 864 864 862 855 854 849 848 846 845 843 843 838 834 833 833 827 816 802 787 790 780 785 788 789 792 786 781 766 746 741 732 740 740 724 730
882 880 879 877 875 873 873 871 868 866 865 864 863 863 863 858 846 847 847 847 844 839 838 836 833 833 832 825 818 805 786 779 770 774 784 785 788 783 771 773 750 734 735 737 734 737 731
881 880 879 876 874 872 870 868 866 864 863 862 860 860 860 855 846 848 846 841 841 841 838 836 835 831 830 824 816 803 793 787 782 771 775 784 786 783 774 768 740 734 735 738 739 743 740
878 877 876 874 873 871 868 865 863 861 860 859 857 856 856 850 844 843 843 840 839 839 834 833 833 829 827 824 815 802 800 802 806 794 784 775 770 772 773 768 759 751 743 743 756 750 747
875 873 873 871 868 867 865 863 859 857 856 855 853 850 849 848 840 840 838 834 831 830 834 836 828 828 823 821 817 814 809 808 806 803 789 790 776 789 793 747 746 753 755 760 760 757 750
Wind_Speed
12 12 13 14 15 15 16 16 17 17 18 18 19 19 19 17 15 13 12 12 10 9 8 6 5 7 3 2 3 3 2 1 2 3 5 3 4 2 4 3 4 6 4 6 12 16 15
11 13 13 14 15 15 16 16 17 18 18 19 19 20 20 19 17 15 13 11 11 10 8 6 4 4 0 4 3 4 2 2 2 2 2 3 2 2 1 3 4 3 11 19 11 10 10
12 13 13 14 14 15 15 16 17 18 19 19 20 20 21 21 19 17 13 13 11 10 7 4 2 1 2 6 3 4 3 1 2 1 1 2 2 2 2 3 3 7 9 11 8 3 4
11 12 13 13 15 15 15 16 17 17 18 20 21 21 22 23 23 16 15 16 13 9 5 3 2 0 4 3 4 5 4 1 1 0 1 2 2 0 2 4 3 5 4 9 3 3 1
15 16 16 16 16 16 17 18 18 19 19 20 20 21 22 23 23 16 18 15 8 2 2 2 1 2 3 2 2 3 4 2 3 3 2 4 1 1 2 4 3 1 9 12 10 4 3
13 13 14 14 13 13 14 15 16 17 19 20 20 20 21 24 18 16 17 9 3 1 0 1 1 3 3 2 2 3 2 4 2 3 3 2 1 3 2 3 6 10 9 10 14 6 6
12 12 11 13 15 16 16 16 17 18 19 20 20 19 19 22 14 14 15 3 2 2 2 5 1 3 1 1 2 2 3 4 2 2 2 1 4 4 3 3 6 9 11 15 16 5 12
13 13 14 15 16 17 18 19 20 20 21 22 22 21 19 20 8 11 8 5 3 1 8 3 6 6 6 2 3 3 5 3 2 3 2 3 6 1 2 5 6 9 11 11 13 3 8
15 16 17 18 18 19 19 20 21 23 23 23 24 24 21 21 5 7 7 4 0 2 4 3 3 2 1 5 2 4 7 2 3 3 4 5 1 1 4 6 5 7 6 12 11 15 1
14 14 15 17 18 19 20 21 22 23 23 23 21 21 22 19 3 8 2 5 1 2 3 3 3 2 2 1 3 1 3 2 3 3 3 7 1 3 5 5 2 5 2 7 14 7 4
15 16 17 18 18 19 21 22 23 24 25 24 20 18 18 12 7 3 3 6 2 3 4 2 3 4 3 3 1 3 1 1 5 2 2 2 2 3 5 1 3 5 10 7 4 4 3
14 16 17 18 18 21 23 24 25 26 27 27 21 18 17 6 7 3 5 3 1 1 7 2 3 3 4 5 4 3 3 2 1 3 4 7 1 4 3 2 5 9 5 3 2 2 3
15 15 16 17 19 21 23 25 26 27 28 28 21 19 14 9 1 4 4 3 1 4 1 2 3 3 3 4 4 6 5 5 5 2 3 3 4 2 3 4 3 4 5 3 3 3 4
15 15 16 18 20 22 24 27 28 29 29 30 21 15 7 4 7 5 1 2 7 6 8 1 2 2 5 5 4 4 3 4 7 3 3 3 3 5 5 2 3 3 3 1 4 4 7
13 16 17 18 20 22 25 28 30 32 36 35 19 5 4 7 3 3 3 3 5 6 3 2 1 5 5 3 3 4 6 4 5 13 7 4 4 3 1 1 2 3 2 2 3 0 3
14 15 17 18 20 22 25 27 31 34 36 26 11 4 5 7 2 1 3 5 4 3 6 2 5 6 6 3 4 5 5 2 2 4 3 1 5 2 3 2 2 3 6 2 2 3 4
14 15 16 18 20 22 25 28 31 35 37 20 3 1 9 5 3 2 3 4 5 4 3 3 4 5 8 9 7 5 2 1 0 4 2 3 4 3 1 6 4 4 3 2 2 2 3
12 13 15 16 19 22 25 28 31 34 34 16 5 1 11 4 1 0 2 3 5 5 4 3 2 4 4 4 6 6 7 3 1 5 5 4 2 5 8 2 2 2 3 5 3 3 2
10 12 13 16 18 21 24 27 30 32 28 8 3 2 7 5 1 1 4 4 3 6 5 6 4 6 3 3 5 3 2 4 2 3 3 5 4 3 4 2 3 4 4 2 0 1 10
11 13 15 16 17 18 20 24 29 32 24 6 2 3 4 4 2 3 5 3 4 7 0 5 5 4 5 4 3 5 2 2 6 3 3 4 3 10 12 6 1 6 6 7 9 8 12
11 13 14 16 17 17 18 21 26 29 23 5 4 4 4 4 2 8 5 4 8 4 5 9 3 9 6 4 5 4 4 7 2 6 2 3 7 6 11 11 9 12 14 15 17 16 15
12 12 13 13 15 16 18 19 20 24 21 10 3 4 4 4 6 6 3 3 6 6 5 5 4 9 7 5 7 10 7 5 5 5 4 3 5 2 5 9 13 16 17 20 22 22 24
10 12 13 14 15 15 16 17 18 19 18 6 4 2 2 3 3 4 1 4 4 7 4 1 10 13 12 8 12 15 16 15 15 10 6 4 3 4 15 8 10 17 23 24 22 19 16
11 11 13 14 14 15 16 17 17 16 12 6 2 1 2 2 4 3 5 10 8 4 7 12 13 7 6 17 17 15 18 21 23 22 19 16 12 7 10 10 13 9 3 4 10 17 15
11 11 12 13 13 14 14 14 14 15 13 7 3 1 2 4 5 11 4 3 8 6 6 9 6 3 11 11 6 8 4 4 8 15 19 19 15 9 6 9 17 22 19 7 7 9 4
10 11 12 13 13 13 14 14 13 14 13 10 8 5 3 3 4 8 5 6 4 6 4 4 6 13 6 3 3 4 5 3 3 2 2 11 15 12 8 6 6 4 3 4 7 6 7
12 12 13 14 14 15 15 15 15 14 14 12 7 7 5 4 8 6 6 5 3 3 4 5 5 6 2 2 5 6 7 4 5 4 1 4 6 16 15 12 9 4 4 2 7 5 9
13 14 15 15 16 17 16 16 16 16 15 13 13 13 9 3 8 11 11 10 5 6 7 1 5 3 2 3 3 3 4 3 4 4 5 3 4 5 7 7 14 15 3 4 8 13 13
14 15 16 18 17 17 17 17 17 16 16 15 12 13 14 11 4 10 16 25 29 24 8 4 5 4 2 3 3 3 6 5 7 6 3 5 3 6 6 4 15 20 8 7 11 14 11
Wind_Direction
47 43 40 35 31 27 24 21 15 16 13 13 12 10 5 359 353 344 337 331 326 315 307 301 305 328 350 281 250 195 198 351 8 17 50 36 36 353 336 300 286 246 285 279 273 287 282
47 44 42 37 32 27 24 22 20 18 14 14 12 8 4 358 351 342 333 327 323 318 308 300 301 328 226 273 189 187 208 322 352 37 51 29 51 25 292 290 277 314 291 287 290 276 265
46 44 40 40 35 32 26 23 22 19 14 12 10 7 2 357 349 341 331 326 317 309 303 288 286 342 240 264 199 199 226 277 319 358 351 104 125 293 333 280 318 295 300 299 254 274 283
51 52 50 44 39 30 24 21 20 13 9 7 6 4 1 355 348 343 335 326 311 295 279 266 264 217 258 226 219 236 238 169 135 175 126 135 158 273 236 307 243 286 266 330 349 285 197
56 48 42 34 30 22 13 8 6 3 359 359 2 1 359 356 350 345 336 329 322 289 246 219 234 242 259 224 223 211 193 181 142 104 108 120 204 313 214 297 250 261 319 324 316 207 284
43 33 28 29 23 13 6 5 4 0 355 354 357 356 357 354 355 347 340 339 343 42 141 175 158 265 224 189 162 178 191 162 175 145 147 219 224 262 222 311 337 311 312 310 301 320 286
45 41 27 8 5 2 2 5 2 356 352 350 352 352 353 353 352 357 351 5 314 181 188 248 342 303 298 308 244 171 154 151 172 215 260 85 260 263 330 259 285 285 282 293 296 319 317
26 24 21 15 10 8 6 3 1 357 352 349 350 347 349 350 352 6 24 75 132 307 304 248 251 269 255 244 240 172 163 220 227 273 267 230 249 147 293 259 246 263 289 314 304 253 313
39 33 26 20 16 13 9 3 357 353 350 345 347 347 346 348 347 5 58 71 30 143 269 287 219 235 232 184 253 180 186 169 243 244 226 259 351 235 255 290 265 294 264 326 306 316 256
35 25 22 19 15 9 5 3 358 351 346 341 338 342 344 347 37 353 35 358 347 203 299 197 192 171 141 153 260 126 203 251 217 280 272 261 9 256 276 269 268 304 238 311 309 321 331
31 26 19 15 12 8 5 358 353 349 345 339 336 336 334 343 312 319 317 336 317 247 325 126 167 142 139 201 59 171 317 185 244 214 237 290 242 260 283 259 198 286 324 304 277 293 308
28 25 21 17 14 8 3 357 353 348 345 339 333 332 328 329 310 259 318 316 208 284 248 223 148 204 194 183 191 141 183 168 329 262 228 264 263 242 268 270 226 306 282 231 241 284 285
29 25 24 23 11 7 2 359 354 349 345 340 334 327 315 302 278 302 324 244 281 208 5 201 229 193 254 199 214 193 187 196 223 237 238 212 210 208 227 276 175 295 305 325 311 322 308
28 27 25 18 10 6 3 360 355 350 345 341 331 329 325 283 272 293 233 224 219 231 237 95 155 168 242 178 202 188 222 244 220 230 255 237 261 186 162 267 324 29 327 326 296 313 316
30 31 22 15 10 9 4 359 355 351 345 344 336 358 64 357 1 177 221 211 229 226 321 200 147 225 227 221 234 204 228 248 220 192 216 198 247 138 194 155 262 132 217 18 269 161 269
36 29 22 15 11 8 4 1 356 350 348 349 337 347 30 358 13 301 217 238 255 309 332 292 250 217 267 209 222 213 210 167 206 204 319 183 278 160 117 171 113 264 138 213 212 276 282
28 23 18 15 12 6 3 1 359 354 349 355 8 85 358 360 100 176 234 266 303 314 318 284 281 275 268 279 241 221 261 169 155 155 193 185 238 177 190 204 206 165 200 189 283 256 279
26 17 15 14 11 9 3 1 359 359 357 5 351 61 352 5 193 90 220 325 315 312 349 323 288 279 265 269 257 255 255 246 241 170 190 188 230 244 258 84 351 316 262 218 247 184 247
15 9 7 3 3 5 4 2 1 2 6 350 13 323 350 2 298 337 339 301 283 346 346 348 328 6 354 301 299 240 253 6 304 220 206 177 215 253 220 176 128 227 192 209 95 252 246
8 0 358 357 357 358 0 1 2 6 5 10 346 9 6 37 41 354 342 297 330 331 209 6 352 30 347 286 262 286 296 16 329 303 303 188 231 252 261 302 7 260 245 230 245 262 263
1 353 351 357 360 359 358 359 3 10 11 25 18 47 19 341 35 333 310 309 307 327 354 22 80 37 1 300 311 282 5 338 329 1 8 321 259 245 260 270 276 270 270 261 247 251 258
0 1 3 4 6 2 4 3 4 5 17 62 48 357 347 318 318 307 302 16 22 345 346 332 5 342 328 284 307 301 331 295 276 337 2 10 278 321 272 271 270 268 263 257 258 256 258
9 6 7 7 5 3 2 5 8 7 21 48 36 40 294 329 334 303 33 1 347 343 252 8 335 315 299 320 314 291 276 263 259 267 276 285 265 283 271 300 305 281 249 246 251 255 251
1 360 359 360 359 0 359 1 3 8 18 21 21 7 312 289 300 297 293 305 294 295 277 300 308 282 342 325 307 276 255 251 247 243 232 241 232 242 275 289 264 264 349 283 263 264 247
346 345 346 343 345 343 341 344 349 350 356 358 307 235 239 271 278 284 245 264 300 290 271 277 284 307 326 320 302 298 252 239 238 234 234 225 233 245 244 230 272 291 279 227 195 285 184
342 341 337 336 337 336 335 337 340 340 336 332 318 257 220 281 249 229 286 274 276 301 291 251 304 311 313 266 253 259 267 327 265 216 340 215 217 223 221 238 254 74 350 315 155 250 56
333 333 329 328 328 326 326 325 323 322 323 323 294 264 222 258 264 220 238 253 219 254 261 295 314 311 232 263 251 258 253 295 266 258 208 141 189 215 224 240 266 325 299 164 270 6 356
321 318 315 316 316 317 317 318 316 314 312 309 292 274 239 254 268 235 235 242 248 238 246 40 304 199 246 245 258 280 276 3 293 327 310 267 218 212 224 237 247 18 344 298 342 319 336
328 326 325 323 316 312 310 315 314 313 303 298 289 288 278 247 282 271 254 246 244 240 255 216 244 250 273 265 253 287 283 305 300 287 302 284 258 323 313 275 311 315 309 313 322 310 328